Meath Environmental Platform

Observations

Time Sensor AQI SAQ Temp °C Hum % Pres Pa CO μg/m³ H₂S μg/m³ NO μg/m³ NO₂ μg/m³ O₃ μg/m³ SO₂ μg/m³ CO₂e PPM VOC PPM PM1 μg/m³ PM2.5 μg/m³ PM4 μg/m³ PM10 μg/m³ TPS µm
Wednesday 12 August 2026
19:36 Trim Market St 3 30.5 39 66,084 0 5.52 0.42 19.27 78.03 0 2.14 5.59 5.9
19:35 Trim Patrick St 4 31.3 39 69,404 0 34.04 0.35 40.03 66.26 20.43 3.71 9.48 10.43
19:35 Trim Market St 3 30.5 39 66,082 0 4.96 0.42 16.94 77.41 0 2.85 5.59 6.71
19:34 Trim Patrick St 3 31.2 39 69,381 0 38.36 0.36 47.09 63.37 21.04 4.57 10.28 11.31
19:34 Trim Market St 3 30.5 39 66,084 0 6.51 0.41 20.49 84.9 0 2.14 5.59 6.71
19:33 Trim Patrick St 4 31.3 39 69,379 0 39.49 0.36 43.45 62.71 21.51 3.71 9.49 10.44
19:33 Trim Market St 3 30.5 39 66,088 0 7.1 0.41 22.65 78.59 0 1.43 4.53 4.98
19:32 Trim Patrick St 4 31.3 38 69,369 0 36.32 0.35 38.91 69.18 20.9 4.57 11.08 12.19
19:32 Trim Market St 3 30.5 39 66,086 0 6.54 0.41 20.62 82.65 0 1.43 4.53 5.09
19:31 Trim Patrick St 4 31.3 38 69,391 0 37.5 0.35 39.55 68.48 20.89 3.71 10.29 11.32
19:31 Trim Market St 3 30.5 39 66,115 0 5.84 0.41 16.86 81.46 0 2.14 4.53 4.99
19:30 Trim Market St 3 30.6 39 66,098 0 6.64 0.4 20.99 84.86 0 2.14 5.6 6.71
19:29 Trim Patrick St 4 31.4 38 69,422 0 38.65 0.36 43.88 60.15 21.41 4.57 9.52 10.47
19:29 Trim Market St 3 30.6 38 66,129 0 5.84 0.41 18.25 76.81 0 2.85 5.6 5.9
19:28 Trim Patrick St 4 31.4 38 69,432 0 40.85 0.35 40.18 72.89 22.04 4.57 10.3 11.33
19:27 Trim Patrick St 4 31.4 38 69,416 0 43.73 0.33 52.06 64.47 22.24 4.57 11.1 12.21
19:27 Trim Market St 3 30.7 38 66,143 0 7.57 0.41 19.25 81.8 0 1.43 5.07 5.9
19:26 Trim Patrick St 4 31.5 38 69,420 0 38.48 0.32 38.35 68.25 21.82 5.43 10.34 11.37
19:25 Trim Patrick St 4 31.5 38 69,424 0 40.5 0.33 34.86 81.1 22.55 4.57 10.33 11.37
19:24 Trim Patrick St 4 31.6 38 69,434 0 41.46 0.3 39.82 71.84 22.77 4.57 10.35 11.38